This demonstration page uses our WeatherBlox Daily Observations layout. Learn more.

Left ArrowRight Arrow

Hourly Observations for July 21, 2020

Temp ( °F °C ) Dew Point ( °F °C ) Humidity (%) Winds ( mph kmh ) Pressure ( in mb ) Visibility ( mi km ) Precip ( " mm )
12:51 am 00:51 Clear 88 31.1 44 6.7 22 22 NW 10 17 29.67 1005 10 16.0934 0 0
1:51 am 01:51 Clear 88 31.1 44 6.7 22 22 NW 8 13 29.67 1005 10 16.0934 0 0
2:51 am 02:51 Clear 85 29.4 44 6.7 24 24 N 7 11 29.68 1005 10 16.0934 0 0
3:51 am 03:51 Clear 83 28.3 44 6.7 25 25 E 6 9 29.7 1006 10 16.0934 0 0
4:51 am 04:51 Clear 83 28.3 52 11.1 34 34 E 6 9 29.71 1006 10 16.0934 0 0
5:51 am 05:51 Sunny 83 28.3 53 11.7 36 36 SE 6 9 29.72 1007 10 16.0934 0 0
6:51 am 06:51 Sunny 82 27.8 53 11.7 37 37 Calm 29.75 1008 10 16.0934 0 0
7:51 am 07:51 Sunny 86 30 55 12.8 35 35 SSE 5 7 29.76 1008 10 16.0934 0 0
8:51 am 08:51 Sunny 91 32.8 54 12.2 28 28 VRB 6 9 29.75 1008 10 16.0934 0 0
9:51 am 09:51 Sunny 94 34.4 53 11.7 25 25 VRB 3 6 29.75 1007 10 16.0934 0 0
10:51 am 10:51 Sunny 95 35 50 10 22 22 VRB 3 6 29.73 1007 10 16.0934 0 0
11:51 am 11:51 Sunny 98 36.7 49 9.4 19 19 WNW 7 11 29.71 1006 10 16.0934 0 0
12:51 pm 12:51 Sunny 99 37.2 48 8.9 18 18 undefined N/A 29.69 1005 10 16.0934 0 0
1:51 pm 13:51 Sunny 103 39.4 46 7.8 15 15 undefined N/A 29.65 1004 10 16.0934 0 0
2:51 pm 14:51 Sunny 103 39.4 46 7.8 15 15 W 13 20 29.62 1003 10 16.0934 0 0
3:51 pm 15:51 Sunny 104 40 45 7.2 13 13 WNW 8 13 29.6 1002 10 16.0934 0 0
4:51 pm 16:51 Sunny 94 34.4 53 11.7 25 25 NE 38 61 29.65 1004 10 16.0934 0 0
6:51 pm 18:51 Partly Cloudy 88 31.1 53 11.7 30 30 E 22 35 29.72 1007 10 16.0934 0 0
7:51 pm 19:51 Partly Cloudy 86 30 54 12.2 33 33 E 9 15 29.75 1007 10 16.0934 0 0
8:51 pm 20:51 Clear 86 30 54 12.2 33 33 E 7 11 29.76 1008 10 16.0934 0 0
9:51 pm 21:51 Mostly Cloudy 86 30 55 12.8 35 35 E 10 17 29.8 1009 10 16.0934 0 0
10:15 pm 22:15 Cloudy 84 28.9 56 13.3 38 38 S 16 26 29.77 1008 10 16.0934 0 0
10:51 pm 22:51 Clear 81 27.2 58 14.4 45 45 S 7 11 29.82 1010 10 16.0934 0 0
11:51 pm 23:51 Clear 80 26.7 59 15 49 49 E 9 15 29.83 1010 10 16.0934 0 0

Powered by AerisWeather